Regional Weather Roundup
Issued by NWS

Home | Current Version | Previous Version | Graphics & Text | Print | Product List | Glossary On
Versions: 1 2 3 4 5 6 7 8 9 10 11 12 13 14 15 16 17 18 19 20 21 22 23 24 25 26 27 28 29 30 31 32 33 34 35 36 37 38 39 40 41 42 43 44 45 46 47 48 49 50
000
ASUS45 KTFX 221810
RWRMT
MONTANA REGIONAL WEATHER ROUNDUP
NATIONAL WEATHER SERVICE GREAT FALLS MT
1200 PM MDT TUE AUG 22 2017

NOTE: "FAIR" INDICATES FEW OR NO CLOUDS BELOW 12000 FEET WITH NO
SIGNIFICANT WEATHER AND/OR OBSTRUCTIONS TO VISIBILITY.

MTZ001>007-043-221900-
WEST OF THE DIVIDE

CITY           SKY/WX    TMP DP  RH WIND       PRES   REMARKS
KALISPELL      SUNNY     73  46  38 E3        30.14F
MISSOULA       SUNNY     71  39  31 CALM      30.16F HAZE
BUTTE          SUNNY     75  35  23 CALM      30.26F
MULLAN PASS    SUNNY     68  38  33 VRB5      30.28S
ANACONDA         N/A     75  36  23 CALM      30.21F
DEER LODGE       N/A     72  39  30 N3        30.23F
EUREKA           N/A     73  43  33 MISG      30.14F
HAMILTON         N/A     70  45  40 CALM      30.16F
LIBBY            N/A     73  43  33 W5        30.10F
RONAN            N/A     76  48  37 CALM      30.18F
$$

MTZ008-052>055-221900-
SOUTHWEST MONTANA

CITY           SKY/WX    TMP DP  RH WIND       PRES   REMARKS
BOZEMAN        SUNNY     75  39  27 CALM      30.22F
DILLON         SUNNY     74  34  23 CALM      30.23F HAZE
W YELLOWSTONE  SUNNY     70  36  28 VRB5      30.36F
ENNIS          SUNNY     77  36  22 CALM      30.28F
THREE FORKS      N/A     73  39  29 E1        30.18F
$$

MTZ009-010-012-014-046-048-049-054-221900-
EAST SLOPES AND CENTRAL MONTANA

CITY           SKY/WX    TMP DP  RH WIND       PRES   REMARKS
CUT BANK       SUNNY     76  37  24 VRB3      30.16F
GREAT FALLS    SUNNY     78  34  20 VRB3      30.15F
MALMSTROM AFB  SUNNY     75  37  25 NW3       30.15F
HELENA         SUNNY     75  38  26 CALM      30.17F
AUGUSTA          N/A     77  37  24 S8        30.18F
BOWMANS CRNR     N/A     75  33  21 S6        30.16F
CHOTEAU          N/A     79  37  22 S5        30.18S
FAIRFIELD        N/A     76  35  22 SE3       30.15F
POWER            N/A     76  34  21 SW3       30.15F
RAYNESFORD       N/A     79  35  20 NW6       30.16F
ULM              N/A     77  35  22 S5        30.15F
$$

MTZ011-013-016-021-045-047-050-051-221900-
NORTH CENTRAL MONTANA

CITY           SKY/WX    TMP DP  RH WIND       PRES   REMARKS
HAVRE          SUNNY     80  37  21 E7        30.12F
LEWISTOWN      SUNNY     81  35  19 SE10      30.18F
N BAR RANCH      N/A     77  30  18 VRB3G12   30.23S
CHINOOK          N/A     77  45  31 NE6       30.12F
DENTON           N/A     78  35  20 NE8       30.13F
GEYSER           N/A     77  36  22 NE8       30.17F
GRASS RANGE      N/A     80  33  18 E8G17     30.14F
JUDITH GAP       N/A     76  33  21 SE9G18    30.21F
WINIFRED         N/A     78  33  20 E12       30.16F
$$

MTZ017>020-022>027-061-062-221900-
NORTHEAST MONTANA

CITY           SKY/WX    TMP DP  RH WIND       PRES   REMARKS
GLASGOW        SUNNY     78  35  21 VRB7      30.16F
JORDAN           N/A     80  34  19 E9G17     30.15F
SIDNEY         SUNNY     75  35  23 SE3       30.19F
WOLF POINT     SUNNY     79  35  20 CALM      30.17F
MALTA          SUNNY     79  36  21 SE7       30.14F
PLENTYWOOD       N/A     73  37  27 CALM      30.18F
$$

MTZ028>42-056>058-221900-
SOUTHCENTRAL AND SOUTHEAST MONTANA

CITY           SKY/WX    TMP DP  RH WIND       PRES   REMARKS
BAKER          SUNNY     79  36  21 E9        30.21F
BILLINGS       MOSUNNY   76  40  27 S6        30.18F
LIVINGSTON     SUNNY     77  35  21 VRB3      30.21F
MILES CITY     SUNNY     81  37  20 E7        30.15F
BIG TIMBER     SUNNY     73  36  25 CALM      30.23F
HARLOWTON        N/A     75  32  21 MISG      30.20F
LAUREL           N/A     75  39  27 E2        30.16F
$$

REGIONAL REPORTS...DAKOTAS

CITY           SKY/WX    TMP DP  RH WIND       PRES   REMARKS
WILLISTON      SUNNY     75  37  25 SW9       30.18F
MINOT          SUNNY     75  38  26 NW13G23   30.16F
DICKINSON      SUNNY     73  38  27 CALM      30.19F
BEACH            N/A     75  34  22 NE7       30.23F
CROSBY           N/A     75  34  22 NW12      30.18S
TIOGA            N/A     72  34  25 NW10      30.19F
WATFORD CITY     N/A     73  34  23 SW6G13    30.19F
BISMARCK       SUNNY     75  42  30 NW13      30.20S
GRAND FORKS    MOSUNNY   75  43  31 NW21G35   30.05F
FARGO          SUNNY     75  42  30 NW20G29   30.08F
BUFFALO SD       N/A     78  41  26 S9        30.14F
RAPID CITY     SUNNY     79  44  28 S15       30.21F
$$

REGIONAL REPORTS...WYOMING/IDAHO/WASHINGTON

CITY           SKY/WX    TMP DP  RH WIND       PRES   REMARKS
GILLETTE       SUNNY     80  39  23 E8        30.22F
SHERIDAN       SUNNY     82  37  20 NE7       30.20F
BUFFALO WY     SUNNY     82  29  14 N9        30.26S
CODY           SUNNY     77  35  21 SE5       30.25F HAZE
YELLOWSTONE LA   N/A     60  44  55 E3        30.45F
IDAHO FALLS    SUNNY     77  40  26 N3        30.25F
SALMON         SUNNY     70  39  32 CALM      30.21F
BOISE          SUNNY     81  44  27 NE5       30.13S
SPOKANE        MOSUNNY   78  48  34 NE6       30.08S
$$

REGIONAL REPORTS...ALBERTA

CITY           SKY/WX    TMP DP  RH WIND       PRES   REMARKS
EDMONTON       MOSUNNY   72  54  53 NW2       30.06F
CALGARY        MOSUNNY   75  45  33 NE5       30.13F
LETHBRIDGE     SUNNY     75  41  29 N3        30.12F
MEDICINE HAT   MOSUNNY   81  39  22 VRB5      30.09F
$$

REGIONAL REPORTS...SASKATCHEWAN

CITY           SKY/WX    TMP DP  RH WIND       PRES   REMARKS
SWIFT CURRENT  CLOUDY    75  37  25 W8        30.13F
REGINA         PTSUNNY   73  34  23 NW5       30.15F
SASKATOON      PTSUNNY   70  45  40 SW10      30.08F
$$



USA.gov is the U.S. government's official web portal to all federal, state and local government web resources and services.